owner,sensor,date,latitude,longitude,air_pressure(mBar),qcFlag 
TABS,ioos:station:wmo:42043:1,2012-08-01T00:00:00Z,28.9818,-94.9186,1014.34,11111222 
TABS,ioos:station:wmo:42043:1,2012-08-01T00:30:00Z,28.9818,-94.9186,1014.52,11111222 
TABS,ioos:station:wmo:42043:1,2012-08-01T01:00:00Z,28.9818,-94.9186,1014.46,11111222 
TABS,ioos:station:wmo:42043:1,2012-08-01T01:30:00Z,28.9818,-94.9186,1014.68,11111222 
TABS,ioos:station:wmo:42043:1,2012-08-01T02:00:00Z,28.9818,-94.9186,1014.9,11111222 
TABS,ioos:station:wmo:42043:1,2012-08-01T02:30:00Z,28.9818,-94.9186,1015.23,11111222 
TABS,ioos:station:wmo:42043:1,2012-08-01T03:00:00Z,28.9818,-94.9186,1015.4,11111222 
TABS,ioos:station:wmo:42043:1,2012-08-01T03:30:00Z,28.9818,-94.9186,1015.37,11111222 
TABS,ioos:station:wmo:42043:1,2012-08-01T04:00:00Z,28.9818,-94.9186,1015.16,11111222 
TABS,ioos:station:wmo:42043:1,2012-08-01T04:30:00Z,28.9818,-94.9186,1015.3,11111222 
TABS,ioos:station:wmo:42043:1,2012-08-01T05:00:00Z,28.9818,-94.9186,1015.16,11111222 
TABS,ioos:station:wmo:42043:1,2012-08-01T05:30:00Z,28.9818,-94.9186,1014.94,11111222 
TABS,ioos:station:wmo:42043:1,2012-08-01T06:00:00Z,28.9818,-94.9186,1014.72,11111222 
TABS,ioos:station:wmo:42043:1,2012-08-01T06:30:00Z,28.9818,-94.9186,1014.67,11111222 
TABS,ioos:station:wmo:42043:1,2012-08-01T07:00:00Z,28.9818,-94.9186,1014.33,11111222 
TABS,ioos:station:wmo:42043:1,2012-08-01T07:30:00Z,28.9818,-94.9186,1014.38,11111222 
TABS,ioos:station:wmo:42043:1,2012-08-01T08:00:00Z,28.9818,-94.9186,1014.39,11111222 
TABS,ioos:station:wmo:42043:1,2012-08-01T08:30:00Z,28.9818,-94.9186,1014.38,11111222 
TABS,ioos:station:wmo:42043:1,2012-08-01T09:00:00Z,28.9818,-94.9186,1014.39,11111222 
TABS,ioos:station:wmo:42043:1,2012-08-01T09:30:00Z,28.9818,-94.9186,1014.56,11111222 
TABS,ioos:station:wmo:42043:1,2012-08-01T10:00:00Z,28.9818,-94.9186,1014.46,11111222 
TABS,ioos:station:wmo:42043:1,2012-08-01T10:30:00Z,28.9818,-94.9186,1014.42,11111222 
TABS,ioos:station:wmo:42043:1,2012-08-01T11:00:00Z,28.9818,-94.9186,1014.64,11111222 
TABS,ioos:station:wmo:42043:1,2012-08-01T11:30:00Z,28.9818,-94.9186,1014.65,11111222 
TABS,ioos:station:wmo:42043:1,2012-08-01T12:00:00Z,28.9818,-94.9186,1014.94,11111222 
TABS,ioos:station:wmo:42043:1,2012-08-01T12:30:00Z,28.9818,-94.9186,1015.32,11111222 
TABS,ioos:station:wmo:42043:1,2012-08-01T13:00:00Z,28.9818,-94.9186,1015.58,11111222 
TABS,ioos:station:wmo:42043:1,2012-08-01T13:30:00Z,28.9818,-94.9186,1015.65,11111222 
TABS,ioos:station:wmo:42043:1,2012-08-01T14:00:00Z,28.9818,-94.9186,1015.81,11111222 
TABS,ioos:station:wmo:42043:1,2012-08-01T14:30:00Z,28.9818,-94.9186,1015.81,11111222 
TABS,ioos:station:wmo:42043:1,2012-08-01T15:00:00Z,28.9818,-94.9186,1015.74,11111222 
TABS,ioos:station:wmo:42043:1,2012-08-01T15:30:00Z,28.9818,-94.9186,1015.88,11111222 
TABS,ioos:station:wmo:42043:1,2012-08-01T16:00:00Z,28.9818,-94.9186,1015.81,11111222 
TABS,ioos:station:wmo:42043:1,2012-08-01T16:30:00Z,28.9818,-94.9186,1015.79,11111222 
TABS,ioos:station:wmo:42043:1,2012-08-01T17:00:00Z,28.9818,-94.9186,1015.6,11111222 
TABS,ioos:station:wmo:42043:1,2012-08-01T17:30:00Z,28.9818,-94.9186,1015.54,11111222 
TABS,ioos:station:wmo:42043:1,2012-08-01T18:00:00Z,28.9818,-94.9186,1015.39,11111222 
TABS,ioos:station:wmo:42043:1,2012-08-01T18:30:00Z,28.9818,-94.9186,1015.09,11111222 
TABS,ioos:station:wmo:42043:1,2012-08-01T19:00:00Z,28.9818,-94.9186,1014.78,11111222 
TABS,ioos:station:wmo:42043:1,2012-08-01T19:30:00Z,28.9818,-94.9186,1014.64,11111222 
TABS,ioos:station:wmo:42043:1,2012-08-01T20:00:00Z,28.9818,-94.9186,1014.52,11111222 
TABS,ioos:station:wmo:42043:1,2012-08-01T20:30:00Z,28.9818,-94.9186,1014.26,11111222 
TABS,ioos:station:wmo:42043:1,2012-08-01T21:00:00Z,28.9818,-94.9186,1013.99,11111222 
TABS,ioos:station:wmo:42043:1,2012-08-01T21:30:00Z,28.9818,-94.9186,1013.79,11111222 
TABS,ioos:station:wmo:42043:1,2012-08-01T22:00:00Z,28.9818,-94.9186,1013.8,11111222 
TABS,ioos:station:wmo:42043:1,2012-08-01T22:30:00Z,28.9818,-94.9186,1013.67,11111222 
TABS,ioos:station:wmo:42043:1,2012-08-01T23:00:00Z,28.9818,-94.9186,1013.18,11111222 
TABS,ioos:station:wmo:42043:1,2012-08-01T23:30:00Z,28.9818,-94.9186,1013.11,11111222 
TABS,ioos:station:wmo:42043:1,2012-08-02T00:00:00Z,28.9818,-94.9186,1012.92,11111222 
TABS,ioos:station:wmo:42043:1,2012-08-02T00:30:00Z,28.9818,-94.9186,1012.98,11111222 
TABS,ioos:station:wmo:42043:1,2012-08-02T01:00:00Z,28.9818,-94.9186,1012.8,11111222 
TABS,ioos:station:wmo:42043:1,2012-08-02T01:30:00Z,28.9818,-94.9186,1012.88,11111222 
TABS,ioos:station:wmo:42043:1,2012-08-02T02:00:00Z,28.9818,-94.9186,1013.01,11111222 
TABS,ioos:station:wmo:42043:1,2012-08-02T02:30:00Z,28.9818,-94.9186,1013.2,11111222 
TABS,ioos:station:wmo:42043:1,2012-08-02T03:00:00Z,28.9818,-94.9186,1013.35,11111222 
TABS,ioos:station:wmo:42043:1,2012-08-02T03:30:00Z,28.9818,-94.9186,1013.56,11111222 
TABS,ioos:station:wmo:42043:1,2012-08-02T04:00:00Z,28.9818,-94.9186,1013.38,11111222 
TABS,ioos:station:wmo:42043:1,2012-08-02T04:30:00Z,28.9818,-94.9186,1013.45,11111222 
TABS,ioos:station:wmo:42043:1,2012-08-02T05:00:00Z,28.9818,-94.9186,1013.25,11111222 
TABS,ioos:station:wmo:42043:1,2012-08-02T05:30:00Z,28.9818,-94.9186,1013.12,11111222 
TABS,ioos:station:wmo:42043:1,2012-08-02T06:00:00Z,28.9818,-94.9186,1012.9,11111222 
TABS,ioos:station:wmo:42043:1,2012-08-02T06:30:00Z,28.9818,-94.9186,1012.54,11111222 
TABS,ioos:station:wmo:42043:1,2012-08-02T07:00:00Z,28.9818,-94.9186,1012.35,11111222 
TABS,ioos:station:wmo:42043:1,2012-08-02T07:30:00Z,28.9818,-94.9186,1012.11,11111222 
TABS,ioos:station:wmo:42043:1,2012-08-02T08:00:00Z,28.9818,-94.9186,1012.33,11111222 
TABS,ioos:station:wmo:42043:1,2012-08-02T08:30:00Z,28.9818,-94.9186,1012.28,11111222 
TABS,ioos:station:wmo:42043:1,2012-08-02T09:00:00Z,28.9818,-94.9186,1012.09,11111222 
TABS,ioos:station:wmo:42043:1,2012-08-02T09:30:00Z,28.9818,-94.9186,1011.92,11111222 
TABS,ioos:station:wmo:42043:1,2012-08-02T10:00:00Z,28.9818,-94.9186,1012.11,11111222 
TABS,ioos:station:wmo:42043:1,2012-08-02T10:30:00Z,28.9818,-94.9186,1011.99,11111222 
TABS,ioos:station:wmo:42043:1,2012-08-02T11:00:00Z,28.9818,-94.9186,1012.22,11111222 
TABS,ioos:station:wmo:42043:1,2012-08-02T11:30:00Z,28.9818,-94.9186,1012.38,11111222 
TABS,ioos:station:wmo:42043:1,2012-08-02T12:00:00Z,28.9818,-94.9186,1012.82,11111222 
TABS,ioos:station:wmo:42043:1,2012-08-02T12:30:00Z,28.9818,-94.9186,1013.24,11111222 
TABS,ioos:station:wmo:42043:1,2012-08-02T13:00:00Z,28.9818,-94.9186,1013.47,11111222 
TABS,ioos:station:wmo:42043:1,2012-08-02T13:30:00Z,28.9818,-94.9186,1013.75,11111222 
TABS,ioos:station:wmo:42043:1,2012-08-02T14:00:00Z,28.9818,-94.9186,1013.98,11111222 
TABS,ioos:station:wmo:42043:1,2012-08-02T14:30:00Z,28.9818,-94.9186,1014.05,11111222 
TABS,ioos:station:wmo:42043:1,2012-08-02T15:00:00Z,28.9818,-94.9186,1014.25,11111222 
TABS,ioos:station:wmo:42043:1,2012-08-02T15:30:00Z,28.9818,-94.9186,1014.31,11111222 
TABS,ioos:station:wmo:42043:1,2012-08-02T16:00:00Z,28.9818,-94.9186,1014.55,11111222 
TABS,ioos:station:wmo:42043:1,2012-08-02T16:30:00Z,28.9818,-94.9186,1014.36,11111222 
TABS,ioos:station:wmo:42043:1,2012-08-02T17:00:00Z,28.9818,-94.9186,1014.1,11111222 
TABS,ioos:station:wmo:42043:1,2012-08-02T17:30:00Z,28.9818,-94.9186,1013.91,11111222 
TABS,ioos:station:wmo:42043:1,2012-08-02T18:00:00Z,28.9818,-94.9186,1013.72,11111222 
TABS,ioos:station:wmo:42043:1,2012-08-02T18:30:00Z,28.9818,-94.9186,1013.68,11111222 
TABS,ioos:station:wmo:42043:1,2012-08-02T19:00:00Z,28.9818,-94.9186,1013.43,11111222 
TABS,ioos:station:wmo:42043:1,2012-08-02T19:30:00Z,28.9818,-94.9186,1013.39,11111222 
TABS,ioos:station:wmo:42043:1,2012-08-02T20:00:00Z,28.9818,-94.9186,1012.97,11111222 
TABS,ioos:station:wmo:42043:1,2012-08-02T20:30:00Z,28.9818,-94.9186,1012.59,11111222 
TABS,ioos:station:wmo:42043:1,2012-08-02T21:00:00Z,28.9818,-94.9186,1012.44,11111222 
TABS,ioos:station:wmo:42043:1,2012-08-02T21:30:00Z,28.9818,-94.9186,1012.27,11111222 
TABS,ioos:station:wmo:42043:1,2012-08-02T22:00:00Z,28.9818,-94.9186,1012.07,11111222 
TABS,ioos:station:wmo:42043:1,2012-08-02T22:30:00Z,28.9818,-94.9186,1011.9,11111222 
TABS,ioos:station:wmo:42043:1,2012-08-02T23:00:00Z,28.9818,-94.9186,1011.76,11111222 
TABS,ioos:station:wmo:42043:1,2012-08-02T23:30:00Z,28.9818,-94.9186,1011.53,11111222 
TABS,ioos:station:wmo:42043:1,2012-08-03T00:00:00Z,28.9818,-94.9186,1011.6,11111222 
TABS,ioos:station:wmo:42043:1,2012-08-03T00:30:00Z,28.9818,-94.9186,1011.64,11111222 
TABS,ioos:station:wmo:42043:1,2012-08-03T01:00:00Z,28.9818,-94.9186,1011.66,11111222 
TABS,ioos:station:wmo:42043:1,2012-08-03T01:30:00Z,28.9818,-94.9186,1011.82,11111222 
TABS,ioos:station:wmo:42043:1,2012-08-03T02:00:00Z,28.9818,-94.9186,1011.95,11111222 
TABS,ioos:station:wmo:42043:1,2012-08-03T02:30:00Z,28.9818,-94.9186,1011.96,11111222 
TABS,ioos:station:wmo:42043:1,2012-08-03T03:00:00Z,28.9818,-94.9186,1011.91,11111222 
TABS,ioos:station:wmo:42043:1,2012-08-03T03:30:00Z,28.9818,-94.9186,1011.81,11111222 
TABS,ioos:station:wmo:42043:1,2012-08-03T04:00:00Z,28.9818,-94.9186,1011.89,11111222 
TABS,ioos:station:wmo:42043:1,2012-08-03T04:30:00Z,28.9818,-94.9186,1011.89,11111222 
TABS,ioos:station:wmo:42043:1,2012-08-03T05:00:00Z,28.9818,-94.9186,1011.64,11111222 
TABS,ioos:station:wmo:42043:1,2012-08-03T05:30:00Z,28.9818,-94.9186,1011.6,11111222 
TABS,ioos:station:wmo:42043:1,2012-08-03T06:00:00Z,28.9818,-94.9186,1011.5,11111222 
TABS,ioos:station:wmo:42043:1,2012-08-03T06:30:00Z,28.9818,-94.9186,1011.55,11111222 
TABS,ioos:station:wmo:42043:1,2012-08-03T07:00:00Z,28.9818,-94.9186,1011.33,11111222 
TABS,ioos:station:wmo:42043:1,2012-08-03T07:30:00Z,28.9818,-94.9186,1011.04,11111222 
TABS,ioos:station:wmo:42043:1,2012-08-03T08:00:00Z,28.9818,-94.9186,1010.71,11111222 
TABS,ioos:station:wmo:42043:1,2012-08-03T08:30:00Z,28.9818,-94.9186,1010.86,11111222 
TABS,ioos:station:wmo:42043:1,2012-08-03T09:00:00Z,28.9818,-94.9186,1010.91,11111222 
TABS,ioos:station:wmo:42043:1,2012-08-03T09:30:00Z,28.9818,-94.9186,1011.22,11111222 
TABS,ioos:station:wmo:42043:1,2012-08-03T10:00:00Z,28.9818,-94.9186,1011.51,11111222 
TABS,ioos:station:wmo:42043:1,2012-08-03T10:30:00Z,28.9818,-94.9186,1011.72,11111222 
TABS,ioos:station:wmo:42043:1,2012-08-03T11:00:00Z,28.9818,-94.9186,1011.93,11111222 
TABS,ioos:station:wmo:42043:1,2012-08-03T11:30:00Z,28.9818,-94.9186,1012.43,11111222 
TABS,ioos:station:wmo:42043:1,2012-08-03T12:00:00Z,28.9818,-94.9186,1012.52,11111222 
TABS,ioos:station:wmo:42043:1,2012-08-03T12:30:00Z,28.9818,-94.9186,1012.7,11111222 
TABS,ioos:station:wmo:42043:1,2012-08-03T13:00:00Z,28.9818,-94.9186,1013.01,11111222 
TABS,ioos:station:wmo:42043:1,2012-08-03T13:30:00Z,28.9818,-94.9186,1013.15,11111222 
TABS,ioos:station:wmo:42043:1,2012-08-03T14:00:00Z,28.9818,-94.9186,1013.46,11111222 
TABS,ioos:station:wmo:42043:1,2012-08-03T14:30:00Z,28.9818,-94.9186,1013.72,11111222 
TABS,ioos:station:wmo:42043:1,2012-08-03T15:00:00Z,28.9818,-94.9186,1013.72,11111222 
TABS,ioos:station:wmo:42043:1,2012-08-03T15:30:00Z,28.9818,-94.9186,1014.09,11111222 
TABS,ioos:station:wmo:42043:1,2012-08-03T16:00:00Z,28.9818,-94.9186,1014.28,11111222 
TABS,ioos:station:wmo:42043:1,2012-08-03T16:30:00Z,28.9818,-94.9186,1014.39,11111222 
TABS,ioos:station:wmo:42043:1,2012-08-03T17:00:00Z,28.9818,-94.9186,1014.44,11111222 
TABS,ioos:station:wmo:42043:1,2012-08-03T17:30:00Z,28.9818,-94.9186,1014.26,11111222 
TABS,ioos:station:wmo:42043:1,2012-08-03T18:00:00Z,28.9818,-94.9186,1014.36,11111222 
TABS,ioos:station:wmo:42043:1,2012-08-03T18:30:00Z,28.9818,-94.9186,1014.07,11111222 
TABS,ioos:station:wmo:42043:1,2012-08-03T19:00:00Z,28.9818,-94.9186,1013.81,11111222 
TABS,ioos:station:wmo:42043:1,2012-08-03T19:30:00Z,28.9818,-94.9186,1013.46,11111222 
TABS,ioos:station:wmo:42043:1,2012-08-03T20:00:00Z,28.9818,-94.9186,1013.19,11111222 
TABS,ioos:station:wmo:42043:1,2012-08-03T20:30:00Z,28.9818,-94.9186,1012.98,11111222 
TABS,ioos:station:wmo:42043:1,2012-08-03T21:00:00Z,28.9818,-94.9186,1012.7,11111222 
TABS,ioos:station:wmo:42043:1,2012-08-03T21:30:00Z,28.9818,-94.9186,1012.45,11111222 
TABS,ioos:station:wmo:42043:1,2012-08-03T22:00:00Z,28.9818,-94.9186,1012.19,11111222 
TABS,ioos:station:wmo:42043:1,2012-08-03T22:30:00Z,28.9818,-94.9186,1012.1,11111222 
TABS,ioos:station:wmo:42043:1,2012-08-03T23:00:00Z,28.9818,-94.9186,1012.18,11111222 
TABS,ioos:station:wmo:42043:1,2012-08-03T23:30:00Z,28.9818,-94.9186,1012.14,11111222 
TABS,ioos:station:wmo:42043:1,2012-08-04T00:00:00Z,28.9818,-94.9186,1011.97,11111222 
TABS,ioos:station:wmo:42043:1,2012-08-04T00:30:00Z,28.9818,-94.9186,1012.17,11111222 
TABS,ioos:station:wmo:42043:1,2012-08-04T01:00:00Z,28.9818,-94.9186,1012.18,11111222 
TABS,ioos:station:wmo:42043:1,2012-08-04T01:30:00Z,28.9818,-94.9186,1012.4,11111222 
TABS,ioos:station:wmo:42043:1,2012-08-04T02:00:00Z,28.9818,-94.9186,1012.66,11111222 
TABS,ioos:station:wmo:42043:1,2012-08-04T02:30:00Z,28.9818,-94.9186,1012.77,11111222 
TABS,ioos:station:wmo:42043:1,2012-08-04T03:00:00Z,28.9818,-94.9186,1012.85,11111222 
TABS,ioos:station:wmo:42043:1,2012-08-04T03:30:00Z,28.9818,-94.9186,1012.76,11111222 
TABS,ioos:station:wmo:42043:1,2012-08-04T04:00:00Z,28.9818,-94.9186,1012.93,11111222 
TABS,ioos:station:wmo:42043:1,2012-08-04T04:30:00Z,28.9818,-94.9186,1012.89,11111222 
TABS,ioos:station:wmo:42043:1,2012-08-04T05:00:00Z,28.9818,-94.9186,1013.09,11111222 
TABS,ioos:station:wmo:42043:1,2012-08-04T05:30:00Z,28.9818,-94.9186,1013.23,11111222 
TABS,ioos:station:wmo:42043:1,2012-08-04T06:00:00Z,28.9818,-94.9186,1013.29,11111222 
TABS,ioos:station:wmo:42043:1,2012-08-04T06:30:00Z,28.9818,-94.9186,1013.43,11111222 
TABS,ioos:station:wmo:42043:1,2012-08-04T07:00:00Z,28.9818,-94.9186,1013.19,11111222 
TABS,ioos:station:wmo:42043:1,2012-08-04T07:30:00Z,28.9818,-94.9186,1013.01,11111222 
TABS,ioos:station:wmo:42043:1,2012-08-04T08:00:00Z,28.9818,-94.9186,1012.75,11111222 
TABS,ioos:station:wmo:42043:1,2012-08-04T08:30:00Z,28.9818,-94.9186,1012.48,11111222 
TABS,ioos:station:wmo:42043:1,2012-08-04T09:00:00Z,28.9818,-94.9186,1012.47,11111222 
TABS,ioos:station:wmo:42043:1,2012-08-04T09:30:00Z,28.9818,-94.9186,1012.48,11111222 
TABS,ioos:station:wmo:42043:1,2012-08-04T10:00:00Z,28.9818,-94.9186,1012.81,11111222 
TABS,ioos:station:wmo:42043:1,2012-08-04T10:30:00Z,28.9818,-94.9186,1012.98,11111222 
TABS,ioos:station:wmo:42043:1,2012-08-04T11:00:00Z,28.9818,-94.9186,1013.32,11111222 
TABS,ioos:station:wmo:42043:1,2012-08-04T11:30:00Z,28.9818,-94.9186,1013.76,11111222 
TABS,ioos:station:wmo:42043:1,2012-08-04T12:00:00Z,28.9818,-94.9186,1013.96,11111222 
TABS,ioos:station:wmo:42043:1,2012-08-04T12:30:00Z,28.9818,-94.9186,1014.17,11111222 
TABS,ioos:station:wmo:42043:1,2012-08-04T13:00:00Z,28.9818,-94.9186,1014.4,11111222 
TABS,ioos:station:wmo:42043:1,2012-08-04T13:30:00Z,28.9818,-94.9186,1014.47,11111222 
TABS,ioos:station:wmo:42043:1,2012-08-04T14:00:00Z,28.9818,-94.9186,1014.71,11111222 
TABS,ioos:station:wmo:42043:1,2012-08-04T14:30:00Z,28.9818,-94.9186,1015.14,11111222 
TABS,ioos:station:wmo:42043:1,2012-08-04T15:00:00Z,28.9818,-94.9186,1015.31,11111222 
TABS,ioos:station:wmo:42043:1,2012-08-04T15:30:00Z,28.9818,-94.9186,1015.41,11111222 
TABS,ioos:station:wmo:42043:1,2012-08-04T16:00:00Z,28.9818,-94.9186,1015.72,11111222 
TABS,ioos:station:wmo:42043:1,2012-08-04T16:30:00Z,28.9818,-94.9186,1015.83,11111222 
TABS,ioos:station:wmo:42043:1,2012-08-04T17:00:00Z,28.9818,-94.9186,1015.89,11111222 
TABS,ioos:station:wmo:42043:1,2012-08-04T17:30:00Z,28.9818,-94.9186,1015.87,11111222 
TABS,ioos:station:wmo:42043:1,2012-08-04T18:00:00Z,28.9818,-94.9186,1015.89,11111222 
TABS,ioos:station:wmo:42043:1,2012-08-04T18:30:00Z,28.9818,-94.9186,1015.56,11111222 
TABS,ioos:station:wmo:42043:1,2012-08-04T19:00:00Z,28.9818,-94.9186,1015.5,11111222 
TABS,ioos:station:wmo:42043:1,2012-08-04T19:30:00Z,28.9818,-94.9186,1015.27,11111222 
TABS,ioos:station:wmo:42043:1,2012-08-04T20:00:00Z,28.9818,-94.9186,1015.09,11111222 
TABS,ioos:station:wmo:42043:1,2012-08-04T20:30:00Z,28.9818,-94.9186,1015.08,11111222 
TABS,ioos:station:wmo:42043:1,2012-08-04T21:00:00Z,28.9818,-94.9186,1014.84,11111222 
TABS,ioos:station:wmo:42043:1,2012-08-04T21:30:00Z,28.9818,-94.9186,1014.81,11111222 
TABS,ioos:station:wmo:42043:1,2012-08-04T22:00:00Z,28.9818,-94.9186,1014.67,11111222 
TABS,ioos:station:wmo:42043:1,2012-08-04T22:30:00Z,28.9818,-94.9186,1014.42,11111222 
TABS,ioos:station:wmo:42043:1,2012-08-04T23:00:00Z,28.9818,-94.9186,1014.27,11111222 
TABS,ioos:station:wmo:42043:1,2012-08-04T23:30:00Z,28.9818,-94.9186,1014.14,11111222 
TABS,ioos:station:wmo:42043:1,2012-08-05T00:00:00Z,28.9818,-94.9186,1014.27,11111222 
TABS,ioos:station:wmo:42043:1,2012-08-05T00:30:00Z,28.9818,-94.9186,1014.55,11111222 
TABS,ioos:station:wmo:42043:1,2012-08-05T01:00:00Z,28.9818,-94.9186,1014.96,11111222 
TABS,ioos:station:wmo:42043:1,2012-08-05T01:30:00Z,28.9818,-94.9186,1015.12,11111222 
TABS,ioos:station:wmo:42043:1,2012-08-05T02:00:00Z,28.9818,-94.9186,1015.22,11111222 
TABS,ioos:station:wmo:42043:1,2012-08-05T02:30:00Z,28.9818,-94.9186,1015.66,11111222 
TABS,ioos:station:wmo:42043:1,2012-08-05T03:00:00Z,28.9818,-94.9186,1015.95,11111222 
TABS,ioos:station:wmo:42043:1,2012-08-05T03:30:00Z,28.9818,-94.9186,1016.26,11111222 
TABS,ioos:station:wmo:42043:1,2012-08-05T04:00:00Z,28.9818,-94.9186,1016.27,11111222 
TABS,ioos:station:wmo:42043:1,2012-08-05T04:30:00Z,28.9818,-94.9186,1016.11,11111222 
TABS,ioos:station:wmo:42043:1,2012-08-05T05:00:00Z,28.9818,-94.9186,1015.95,11111222 
TABS,ioos:station:wmo:42043:1,2012-08-05T05:30:00Z,28.9818,-94.9186,1015.73,11111222 
TABS,ioos:station:wmo:42043:1,2012-08-05T06:00:00Z,28.9818,-94.9186,1015.57,11111222 
TABS,ioos:station:wmo:42043:1,2012-08-05T06:30:00Z,28.9818,-94.9186,1015.57,11111222 
TABS,ioos:station:wmo:42043:1,2012-08-05T07:00:00Z,28.9818,-94.9186,1015.98,11111222 
TABS,ioos:station:wmo:42043:1,2012-08-05T07:30:00Z,28.9818,-94.9186,1016.13,11111222 
TABS,ioos:station:wmo:42043:1,2012-08-05T08:00:00Z,28.9818,-94.9186,1016.2,11111222 
TABS,ioos:station:wmo:42043:1,2012-08-05T08:30:00Z,28.9818,-94.9186,1016.18,11111222 
TABS,ioos:station:wmo:42043:1,2012-08-05T09:00:00Z,28.9818,-94.9186,1015.99,11111222 
TABS,ioos:station:wmo:42043:1,2012-08-05T09:30:00Z,28.9818,-94.9186,1015.95,11111222 
TABS,ioos:station:wmo:42043:1,2012-08-05T10:00:00Z,28.9818,-94.9186,1015.88,11111222 
TABS,ioos:station:wmo:42043:1,2012-08-05T10:30:00Z,28.9818,-94.9186,1016.18,11111222 
TABS,ioos:station:wmo:42043:1,2012-08-05T11:00:00Z,28.9818,-94.9186,1016.55,11111222 
TABS,ioos:station:wmo:42043:1,2012-08-05T11:30:00Z,28.9818,-94.9186,1016.87,11111222 
TABS,ioos:station:wmo:42043:1,2012-08-05T12:00:00Z,28.9818,-94.9186,1016.99,11111222 
TABS,ioos:station:wmo:42043:1,2012-08-05T12:30:00Z,28.9818,-94.9186,1017.46,11111222 
TABS,ioos:station:wmo:42043:1,2012-08-05T13:00:00Z,28.9818,-94.9186,1017.53,11111222 
TABS,ioos:station:wmo:42043:1,2012-08-05T13:30:00Z,28.9818,-94.9186,1017.63,11111222 
TABS,ioos:station:wmo:42043:1,2012-08-05T14:00:00Z,28.9818,-94.9186,1017.73,11111222 
TABS,ioos:station:wmo:42043:1,2012-08-05T14:30:00Z,28.9818,-94.9186,1018.18,11111222 
TABS,ioos:station:wmo:42043:1,2012-08-05T15:00:00Z,28.9818,-94.9186,1018.6,11111222 
TABS,ioos:station:wmo:42043:1,2012-08-05T15:30:00Z,28.9818,-94.9186,1018.84,11111222 
TABS,ioos:station:wmo:42043:1,2012-08-05T16:00:00Z,28.9818,-94.9186,1019.21,11111222 
TABS,ioos:station:wmo:42043:1,2012-08-05T16:30:00Z,28.9818,-94.9186,1019.67,11111222 
TABS,ioos:station:wmo:42043:1,2012-08-05T17:00:00Z,28.9818,-94.9186,1019.53,11111222 
TABS,ioos:station:wmo:42043:1,2012-08-05T17:30:00Z,28.9818,-94.9186,1019.47,11111222 
TABS,ioos:station:wmo:42043:1,2012-08-05T18:00:00Z,28.9818,-94.9186,1018.91,11111222 
TABS,ioos:station:wmo:42043:1,2012-08-05T18:30:00Z,28.9818,-94.9186,1018.85,11111222 
TABS,ioos:station:wmo:42043:1,2012-08-05T19:00:00Z,28.9818,-94.9186,1019.03,11111222 
TABS,ioos:station:wmo:42043:1,2012-08-05T19:30:00Z,28.9818,-94.9186,1018.71,11111222 
TABS,ioos:station:wmo:42043:1,2012-08-05T20:00:00Z,28.9818,-94.9186,1018.67,11111222 
TABS,ioos:station:wmo:42043:1,2012-08-05T20:30:00Z,28.9818,-94.9186,1018.47,11111222 
TABS,ioos:station:wmo:42043:1,2012-08-05T21:00:00Z,28.9818,-94.9186,1017.81,11111222 
TABS,ioos:station:wmo:42043:1,2012-08-05T21:30:00Z,28.9818,-94.9186,1017.52,11111222 
TABS,ioos:station:wmo:42043:1,2012-08-05T22:00:00Z,28.9818,-94.9186,1017.23,11111222 
TABS,ioos:station:wmo:42043:1,2012-08-05T22:30:00Z,28.9818,-94.9186,1017.14,11111222 
TABS,ioos:station:wmo:42043:1,2012-08-05T23:00:00Z,28.9818,-94.9186,1016.95,11111222 
TABS,ioos:station:wmo:42043:1,2012-08-05T23:30:00Z,28.9818,-94.9186,1016.56,11111222 
TABS,ioos:station:wmo:42043:1,2012-08-06T00:00:00Z,28.9818,-94.9186,1016.46,11111222 
TABS,ioos:station:wmo:42043:1,2012-08-06T00:30:00Z,28.9818,-94.9186,1016.26,11111222 
TABS,ioos:station:wmo:42043:1,2012-08-06T01:00:00Z,28.9818,-94.9186,1016.49,11111222 
TABS,ioos:station:wmo:42043:1,2012-08-06T01:30:00Z,28.9818,-94.9186,1016.47,11111222 
TABS,ioos:station:wmo:42043:1,2012-08-06T02:00:00Z,28.9818,-94.9186,1016.88,11111222 
TABS,ioos:station:wmo:42043:1,2012-08-06T02:30:00Z,28.9818,-94.9186,1017.11,11111222 
TABS,ioos:station:wmo:42043:1,2012-08-06T03:00:00Z,28.9818,-94.9186,1017.64,11111222 
TABS,ioos:station:wmo:42043:1,2012-08-06T03:30:00Z,28.9818,-94.9186,1017.95,11111222 
TABS,ioos:station:wmo:42043:1,2012-08-06T04:00:00Z,28.9818,-94.9186,1018.05,11111222 
TABS,ioos:station:wmo:42043:1,2012-08-06T04:30:00Z,28.9818,-94.9186,1018.16,11111222 
TABS,ioos:station:wmo:42043:1,2012-08-06T05:00:00Z,28.9818,-94.9186,1018.23,11111222 
TABS,ioos:station:wmo:42043:1,2012-08-06T05:30:00Z,28.9818,-94.9186,1018.05,11111222 
TABS,ioos:station:wmo:42043:1,2012-08-06T06:00:00Z,28.9818,-94.9186,1017.93,11111222 
TABS,ioos:station:wmo:42043:1,2012-08-06T06:30:00Z,28.9818,-94.9186,1017.44,11111222 
TABS,ioos:station:wmo:42043:1,2012-08-06T07:00:00Z,28.9818,-94.9186,1017.38,11111222 
TABS,ioos:station:wmo:42043:1,2012-08-06T07:30:00Z,28.9818,-94.9186,1017.04,11111222 
TABS,ioos:station:wmo:42043:1,2012-08-06T08:00:00Z,28.9818,-94.9186,1016.91,11111222 
TABS,ioos:station:wmo:42043:1,2012-08-06T08:30:00Z,28.9818,-94.9186,1016.67,11111222 
TABS,ioos:station:wmo:42043:1,2012-08-06T09:00:00Z,28.9818,-94.9186,1016.29,11111222 
TABS,ioos:station:wmo:42043:1,2012-08-06T09:30:00Z,28.9818,-94.9186,1016.41,11111222 
TABS,ioos:station:wmo:42043:1,2012-08-06T10:00:00Z,28.9818,-94.9186,1016.39,11111222 
TABS,ioos:station:wmo:42043:1,2012-08-06T10:30:00Z,28.9818,-94.9186,1016.69,11111222 
TABS,ioos:station:wmo:42043:1,2012-08-06T11:00:00Z,28.9818,-94.9186,1017.03,11111222 
TABS,ioos:station:wmo:42043:1,2012-08-06T11:30:00Z,28.9818,-94.9186,1017.56,11111222 
TABS,ioos:station:wmo:42043:1,2012-08-06T12:00:00Z,28.9818,-94.9186,1017.84,11111222 
TABS,ioos:station:wmo:42043:1,2012-08-06T12:30:00Z,28.9818,-94.9186,1017.85,11111222 
TABS,ioos:station:wmo:42043:1,2012-08-06T13:00:00Z,28.9818,-94.9186,1018.25,11111222 
TABS,ioos:station:wmo:42043:1,2012-08-06T13:30:00Z,28.9818,-94.9186,1018.43,11111222 
TABS,ioos:station:wmo:42043:1,2012-08-06T14:00:00Z,28.9818,-94.9186,1018.34,11111222 
TABS,ioos:station:wmo:42043:1,2012-08-06T14:30:00Z,28.9818,-94.9186,1018.25,11111222 
TABS,ioos:station:wmo:42043:1,2012-08-06T15:00:00Z,28.9818,-94.9186,1018.27,11111222 
TABS,ioos:station:wmo:42043:1,2012-08-06T15:30:00Z,28.9818,-94.9186,1018.52,11111222 
TABS,ioos:station:wmo:42043:1,2012-08-06T16:00:00Z,28.9818,-94.9186,1018.92,11111222 
TABS,ioos:station:wmo:42043:1,2012-08-06T16:30:00Z,28.9818,-94.9186,1018.5,11111222 
TABS,ioos:station:wmo:42043:1,2012-08-06T17:00:00Z,28.9818,-94.9186,1018.58,11111222 
TABS,ioos:station:wmo:42043:1,2012-08-06T17:30:00Z,28.9818,-94.9186,1018.69,11111222 
TABS,ioos:station:wmo:42043:1,2012-08-06T18:00:00Z,28.9818,-94.9186,1018.21,11111222 
TABS,ioos:station:wmo:42043:1,2012-08-06T18:30:00Z,28.9818,-94.9186,1017.8,11111222 